Flag for Philippines Weather past 2 weeks in Olongapo, Philippines

Now
84 °F

Partly sunny.


Feels Like: 92 °F
Forecast: 75 / 88 °F
Wind: 2 mph from North

Location: Subic Bay Weather Station

Current Time: Oct 1, 2014 at 6:00:07 PM

Latest Report: Oct 1, 2014 at 5:00 PM


Visibility: N/A

Pressure: 29.71 "Hg

Humidity: 74%

Dew point: 75 °F

Location of OlongapoLocation

Historic Weather in Olongapo — Graph

°F

Olongapo temperature yesterday

Maximum temperature yesterday: 90 °F (at 12:00 PM)
Minimum temperature yesterday: 75 °F (at 5:00 AM)
Average temperature yesterday: 83 °F

Past Weeks' High & Low Weather Summary

 TemperatureHumidityPressure
High133 °F (Sep 25, 4:00 AM)100% (Sep 27, 1:00 PM)29.89 "Hg (Sep 27, 1:00 PM)
Low73 °F (Sep 17, 5:00 AM)16% (Sep 25, 4:00 AM)29.50 "Hg (Sep 19, 3:00 AM)
Average82 °F79%29.78 "Hg
* Reported Sep 16 5:00 PM — Oct 1 5:00 PM, Olongapo, Weather by CustomWeather, © 2014

Note: Actual official high and low records may vary slightly from our data, if they occured in-between our weather recording intervals... More about our weather records

Advertising

Olongapo weather history for previous 24 hours

 ConditionsComfort  
Time TempWeatherWind HumidityBarometerVisibility
5:00 PM
Oct 1
84 °FPartly sunny.2 mph74%29.71 "HgN/A
4:00 PM84 °FPartly sunny.6 mph74%29.71 "HgN/A
3:00 PM84 °FPartly sunny.2 mph79%29.71 "HgN/A
2:00 PM82 °FThunderstorms. Scattered clouds.9 mph84%29.71 "HgN/A
1:00 PM88 °FThunderstorms. Partly sunny.12 mph70%29.71 "HgN/A
12:00 PM88 °FPartly sunny.10 mph70%29.74 "HgN/A
11:00 AM88 °FPartly sunny.9 mph66%29.77 "HgN/A
10:00 AM86 °FPassing clouds.No wind66%29.80 "HgN/A
9:00 AM88 °FScattered clouds.No wind62%29.80 "HgN/A
8:00 AM82 °FPassing clouds.1 mph79%29.77 "HgN/A
7:00 AM79 °FPassing clouds.No wind84%29.77 "HgN/A
6:00 AM77 °FScattered clouds.No wind89%29.74 "HgN/A
5:00 AM79 °FPassing clouds.No wind84%29.74 "HgN/A
2:00 AM81 °FPassing clouds.No wind84%29.74 "HgN/A
12:00 AM81 °FPassing clouds.No wind84%29.77 "HgN/A
11:00 PM
Sep 30
81 °FPassing clouds.3 mph84%29.77 "HgN/A
10:00 PM82 °FPassing clouds.3 mph79%29.77 "HgN/A
9:00 PM84 °FPassing clouds.2 mph74%29.77 "HgN/A
8:00 PM84 °FPassing clouds.1 mph74%29.77 "HgN/A
7:00 PM84 °FPassing clouds.6 mph74%29.74 "HgN/A
6:00 PM84 °FPassing clouds.6 mph74%29.74 "HgN/A
Weather by CustomWeather, © 2014

See weather overviewHow to use our weather pages